Weather History for MRLB - August, 2012

Change the Weather History Date:

Wednesday, August 1, 2012

  Actual Average Record
Temperature  
Mean Temperature 83 °F -  
Max Temperature 95 °F 87 °F 95 °F (2012)
Min Temperature 71 °F 74 °F 71 °F (2000)
Cooling Degree Days 18    
Growing Degree Days 33 (Base 50)    
Moisture  
Dew Point 69 °F    
Average Humidity 58    
Maximum Humidity 88    
Minimum Humidity 30    
Precipitation  
Precipitation 0.00 in - - ()
Sea Level Pressure  
Sea Level Pressure 29.89 in    
Wind  
Wind Speed 8 mph ()    
Max Wind Speed 27 mph    
Max Gust Speed -    
Visibility 7.7 miles    
Events      
Averages and records for this station are not official NWS values.
T = Trace of Precipitation, MM = Missing Value Source: Averaged Metar Reports

Daily Weather History Graph

Daily Weather History Graph

Search for Another Location

Airport or City:

Trip Planner

Search our weather history database for the weather conditions in past years. The results will help you decide how hot, cold, wet, or windy it might be!

Date:

Astronomy

Aug. 01, 2012 Rise Set
Actual Time 5:31 AM CST 6:05 PM CST
Civil Twilight 5:08 AM CST 6:27 PM CST
Nautical Twilight 4:42 AM CST 6:53 PM CST
Astronomical Twilight 4:16 AM CST 7:20 PM CST
Moon 5:46 PM CST 4:54 AM CST
Length of Visible Light 13h 19m
Length of Day
12h 34m
Full, 100% of the Moon is Illuminated
Aug 1
Full
Aug 1
Full
Aug 9
Last Quarter
Aug 17
New
Aug 24
First Quarter

Hourly Weather History & Observations

Time (CST) Temp. Heat Index Dew Point Humidity Pressure Visibility Wind Dir Wind Speed Gust Speed Precip Events Conditions
6:00 AM 72 °F - 67 °F 81% 29.92 in 12 mi WNW 6.7 mph - -   Scattered Clouds
6:00 AM 71.6 °F - 68.0 °F 88% 29.91 in 6.2 mi WNW 3.5 mph - N/A   Scattered Clouds
7:00 AM 75.2 °F - 69.8 °F 83% 29.92 in 6.2 mi South 4.6 mph - N/A   Scattered Clouds
8:00 AM 78.8 °F - 69.8 °F 74% 29.94 in 6.2 mi SSE 4.6 mph - N/A   Scattered Clouds
9:00 AM 86 °F - 69 °F 48% 29.95 in 12 mi NNE 17.9 mph - -   Scattered Clouds
9:00 AM 86.0 °F 90.4 °F 69.8 °F 58% 29.94 in 6.2 mi NNE 9.2 mph - N/A   Scattered Clouds
10:00 AM 87.8 °F 91.4 °F 68.0 °F 52% 29.93 in 6.2 mi East 8.1 mph - N/A   Scattered Clouds
11:00 AM 89.6 °F 93.4 °F 68.0 °F 49% 29.92 in 6.2 mi ENE 5.8 mph - N/A   Scattered Clouds
12:00 PM 92 °F - 66 °F 33% 29.90 in 12 mi East 26.8 mph - -   Partly Cloudy
12:00 PM 91.4 °F 94.0 °F 66.2 °F 43% 29.88 in 6.2 mi East 13.8 mph - N/A   Scattered Clouds
1:00 PM 95.0 °F 97.0 °F 64.4 °F 36% 29.86 in 6.2 mi ESE 11.5 mph - N/A   Scattered Clouds
2:00 PM 95.0 °F 97.0 °F 64.4 °F 36% 29.85 in 6.2 mi East 11.5 mph - N/A   Scattered Clouds
3:00 PM 92 °F - 64 °F 30% 29.85 in 12 mi East 8.1 mph - -   Partly Cloudy
3:00 PM 93.2 °F 94.9 °F 64.4 °F 38% 29.83 in 6.2 mi East 8.1 mph - N/A   Scattered Clouds
4:00 PM 89.6 °F 94.7 °F 69.8 °F 52% 29.83 in 6.2 mi West 11.5 mph - N/A   Scattered Clouds
5:00 PM 86.0 °F 91.8 °F 71.6 °F 62% 29.85 in 6.2 mi West 10.4 mph - N/A   Mostly Cloudy
6:00 PM 83 °F - 73 °F 66% 29.88 in 12 mi WSW 5.8 mph - -   Overcast
6:00 PM 82.4 °F 88.2 °F 73.4 °F 74% 29.87 in 6.2 mi WSW 5.8 mph - N/A   Mostly Cloudy
7:00 PM 78.8 °F - 71.6 °F 78% 29.90 in 6.2 mi SSW 4.6 mph - N/A   Mostly Cloudy
8:00 PM 78.8 °F - 73.4 °F 83% 29.93 in 6.2 mi SE 3.5 mph - N/A   Mostly Cloudy